Theta_e
317 320 320 320 318 318 318 319 320 321 320 320 323 325 326 330 333 334 334 336 336 337 336 337 337 338 336 334 332 327 322 321 324 329 330 331 334 337 338 339 340 341 345 345
319 320 320 316 316 317 318 320 322 321 319 321 325 328 329 331 333 333 334 334 335 336 335 334 335 336 335 334 332 331 327 324 324 327 329 333 335 339 341 342 339 339 341 345
320 319 316 317 318 319 320 321 322 322 320 320 329 326 328 334 331 331 333 333 333 334 335 335 334 334 333 333 332 331 331 330 327 328 332 335 340 341 341 342 341 340 341 342
318 317 317 318 319 320 323 320 320 320 321 322 326 322 327 330 333 331 333 333 333 333 333 334 335 333 333 332 332 331 331 331 331 331 333 337 338 340 341 343 342 343 344 339
322 319 319 320 322 320 322 319 319 319 321 321 322 324 324 323 326 327 333 332 332 332 332 333 333 332 332 331 331 330 330 330 331 332 333 338 339 339 340 344 343 341 339 335
321 318 319 322 321 319 319 319 320 318 321 323 323 322 323 323 324 324 325 329 331 330 330 330 329 330 332 331 329 329 330 330 330 332 333 337 339 340 344 343 341 338 340 332
322 322 320 319 322 319 320 324 325 325 324 324 320 321 326 326 325 323 323 324 326 326 325 325 326 328 328 330 331 328 329 331 331 333 335 337 340 341 344 343 341 342 334 337
321 324 321 319 323 323 323 326 326 327 328 326 319 326 326 326 322 322 325 329 331 330 329 327 328 331 330 329 329 329 328 330 332 334 336 338 341 343 344 342 341 338 338 340
323 323 321 320 322 323 324 325 324 327 321 324 325 324 323 325 327 329 330 333 334 334 335 335 334 333 336 334 328 329 329 329 331 334 336 339 341 343 343 341 342 339 339 333
323 325 322 325 323 321 324 322 326 325 328 328 325 324 325 327 332 332 333 333 333 333 334 335 334 333 334 337 335 326 328 329 331 333 335 338 342 343 342 340 339 339 337 335
328 326 324 323 325 325 325 325 322 324 325 327 328 326 325 332 333 334 332 330 330 330 330 333 334 333 333 333 335 336 330 331 333 335 336 338 342 344 343 339 337 338 337 335
329 328 327 322 323 322 324 324 327 328 329 325 325 327 330 331 330 331 330 327 327 327 326 327 328 331 332 332 332 336 339 337 335 336 338 340 343 344 342 339 338 338 337 335
328 327 327 325 323 329 331 328 329 327 326 332 331 329 330 329 329 328 328 326 325 325 325 325 325 326 328 329 331 331 335 340 340 340 340 342 343 342 341 339 339 338 337 336
328 330 328 325 326 325 330 330 328 328 330 329 329 328 328 330 329 328 326 324 324 324 324 324 324 324 325 327 328 329 329 336 340 342 341 341 341 341 340 340 340 339 337 336
324 327 327 324 323 324 327 325 323 325 327 329 327 327 329 329 326 326 325 322 322 321 322 322 323 323 323 325 326 327 328 330 338 341 341 341 341 340 340 340 340 339 337 336
321 320 324 319 318 318 317 317 318 318 319 322 325 326 327 324 322 322 325 321 320 320 319 319 320 321 322 323 324 326 327 329 332 339 339 340 342 340 339 338 338 337 335 334
319 320 322 314 319 320 316 318 321 323 327 331 332 331 323 323 322 322 322 321 320 319 319 318 318 319 320 321 322 324 325 328 330 338 339 338 340 342 339 337 336 334 334 333
320 321 320 317 321 316 322 325 326 328 323 322 322 322 322 321 320 319 320 320 319 318 317 317 317 317 318 318 320 322 325 328 329 332 340 338 338 340 340 335 335 333 332 331
318 319 320 322 321 319 316 321 319 317 322 313 313 315 320 317 315 316 319 317 315 315 316 316 315 317 318 318 317 320 324 326 327 330 331 337 340 340 340 336 333 332 331 330
317 319 320 321 317 311 323 316 312 314 322 312 310 312 315 312 314 313 313 312 312 312 314 315 316 318 318 318 318 319 323 325 326 326 328 329 330 341 341 338 335 332 331 330
318 319 318 316 317 317 314 312 311 321 318 311 311 313 313 311 311 312 312 313 312 312 314 315 315 317 318 318 318 319 323 324 325 325 327 329 330 336 340 339 337 333 331 330
317 316 316 320 321 315 311 310 310 310 310 310 311 312 313 312 312 312 312 314 314 314 314 314 316 317 318 318 318 319 321 322 323 323 325 326 328 333 339 339 336 332 330 323
315 314 315 316 315 314 309 309 309 310 311 312 312 312 312 312 312 312 314 313 314 313 313 314 315 316 317 317 318 319 320 321 322 322 325 324 324 326 336 338 334 327 323 322
311 310 312 311 310 310 309 309 309 310 311 311 311 312 312 312 312 313 313 314 314 313 313 313 315 316 316 316 316 318 319 320 320 321 322 324 324 323 332 336 328 324 323 322
309 309 310 310 309 309 309 310 310 311 312 312 312 312 313 313 312 312 312 312 313 313 312 313 314 315 315 315 315 315 317 319 320 320 321 321 321 321 322 323 323 323 322 319
308 309 309 310 309 309 310 310 311 312 312 313 312 312 312 312 314 313 312 311 311 311 312 313 313 314 314 314 313 314 316 318 319 319 319 320 320 319 321 319 317 321 321 318
Wind_Speed
1 4 7 6 4 2 2 3 6 8 7 3 7 13 13 6 11 16 18 18 20 24 22 27 28 29 27 27 31 34 39 43 37 28 25 24 27 25 28 28 29 29 27 25
3 8 7 3 5 5 4 4 8 9 4 7 5 9 10 7 10 16 17 17 22 21 19 21 29 28 31 31 35 40 42 43 45 36 36 25 27 26 24 22 26 30 31 30
6 2 7 7 6 6 6 8 4 5 3 4 4 6 4 4 8 9 15 16 19 20 21 18 24 30 30 33 37 42 48 45 45 43 33 26 20 20 21 23 26 30 33 33
6 2 6 6 6 8 4 8 7 3 4 3 2 7 4 4 9 9 13 16 18 19 20 19 24 25 32 39 35 39 45 47 46 43 35 38 37 31 33 25 27 31 34 35
2 4 5 5 4 9 3 4 3 1 3 3 4 5 2 3 8 11 11 15 17 18 19 21 23 33 37 36 40 44 42 47 47 45 45 38 38 36 29 29 28 28 30 27
7 1 5 6 2 8 2 3 2 2 2 5 2 5 5 3 6 5 6 5 9 12 14 19 29 32 34 36 38 42 44 50 50 50 51 46 43 37 29 29 32 25 29 26
3 5 2 4 6 3 2 3 5 6 5 6 4 4 9 8 12 5 9 11 12 13 12 12 15 18 25 26 33 33 40 46 47 47 47 49 46 43 40 35 32 34 32 42
3 2 4 4 4 2 4 2 4 6 8 10 3 5 6 7 8 5 5 8 9 11 12 14 15 16 19 21 29 33 37 42 35 40 46 46 44 42 40 41 38 37 46 48
4 5 2 5 3 4 3 6 2 2 1 4 4 5 10 5 11 11 12 13 15 14 15 15 15 17 18 20 23 30 33 34 35 38 40 44 45 46 45 41 41 40 43 36
0 4 2 4 1 3 4 5 3 2 5 11 5 4 8 2 9 11 14 15 16 17 18 17 18 23 21 20 20 18 25 30 30 34 38 40 41 44 40 39 43 43 41 42
2 2 2 3 1 3 1 2 1 2 3 9 12 7 4 9 8 9 12 14 16 17 17 17 16 24 26 27 23 15 13 19 23 28 32 35 35 35 36 36 38 42 41 44
3 0 4 8 6 4 2 1 3 3 4 1 3 5 8 11 9 9 10 11 13 14 16 17 19 24 26 29 30 24 14 13 18 23 28 31 31 32 34 35 37 38 43 45
3 0 5 4 3 4 4 3 4 1 2 7 7 4 7 8 9 9 11 12 13 14 17 17 17 19 26 28 29 29 26 16 15 18 23 26 29 31 34 37 37 40 40 42
1 2 6 8 6 3 8 12 8 5 6 12 13 17 12 9 10 9 10 12 12 14 16 17 17 18 25 27 29 29 28 26 17 18 21 26 29 31 33 34 35 37 41 40
2 4 4 10 15 15 13 15 16 16 18 15 19 20 10 10 11 9 7 11 13 14 16 16 17 18 26 28 29 30 29 28 24 19 22 25 26 28 31 32 32 31 32 33
3 3 1 10 12 13 17 19 20 19 18 18 15 16 4 7 9 9 8 10 12 14 16 16 17 18 23 27 30 30 31 32 28 21 21 22 24 26 29 29 28 28 30 31
3 2 1 4 4 6 10 10 9 11 4 4 6 4 7 9 11 13 12 9 13 14 15 16 18 19 24 26 28 31 31 31 32 29 21 20 23 25 25 26 30 32 34 34
4 4 3 3 4 5 4 5 6 7 4 6 5 7 8 10 14 16 12 10 15 18 19 18 19 23 26 27 28 30 29 28 28 29 25 22 20 22 23 27 29 30 33 38
10 5 3 3 5 5 9 3 4 5 2 8 11 13 11 13 17 14 6 14 18 21 22 26 29 27 25 26 27 27 28 26 26 25 24 22 23 23 24 27 29 32 31 33
9 1 4 3 5 5 4 6 12 4 8 8 16 16 13 16 14 13 16 21 21 25 25 26 29 28 27 27 26 25 25 25 25 25 25 24 25 24 26 28 31 33 35 34
3 2 5 5 5 4 4 13 11 7 6 20 16 13 15 16 16 21 21 21 25 26 26 26 26 25 26 27 25 24 23 21 25 27 25 23 21 22 28 30 30 32 32 30
1 2 3 1 4 5 9 3 6 9 15 14 17 19 21 21 22 21 21 20 20 23 27 27 26 25 25 26 23 23 23 23 24 25 25 25 23 21 24 29 28 30 29 31
3 3 3 4 3 1 2 7 10 8 12 17 19 21 22 24 24 24 23 23 22 28 28 28 26 26 24 24 21 20 25 23 21 23 24 24 24 23 20 25 25 28 34 32
1 0 4 4 0 9 14 13 6 13 16 20 21 22 22 24 25 26 23 22 21 29 28 29 27 25 24 22 24 21 22 22 21 20 22 23 24 25 20 24 29 29 29 26
3 1 4 7 12 13 6 13 16 20 21 21 19 20 22 22 22 23 21 22 23 29 30 30 27 26 27 24 24 26 22 19 22 20 20 20 19 20 7 3 6 14 22 30
3 2 3 4 11 12 18 20 24 19 22 22 20 20 23 22 22 21 19 23 24 25 31 29 29 28 29 26 26 28 23 16 19 18 20 18 19 16 14 4 4 6 10 14
Wind_Direction
105 206 220 234 198 176 191 265 283 269 261 250 236 264 271 261 230 240 232 214 214 218 214 217 217 218 216 217 216 218 217 218 214 209 207 212 217 220 224 223 221 224 218 216
164 244 228 165 182 208 216 262 261 280 236 212 239 257 287 253 251 244 247 234 227 230 222 219 220 218 215 214 217 222 222 220 217 212 209 207 215 223 225 227 226 225 222 218
220 215 131 178 190 213 226 230 247 268 278 240 266 250 267 262 267 266 249 247 241 232 226 222 220 218 218 221 218 220 225 222 220 214 209 208 214 219 220 223 228 223 221 214
239 200 218 191 222 202 268 209 254 248 239 225 295 283 264 274 275 247 241 238 240 233 231 224 228 219 220 224 224 225 228 225 224 217 207 205 209 214 221 218 216 213 212 211
225 185 166 195 231 188 256 174 269 196 169 231 183 260 254 288 282 274 260 245 246 246 241 235 230 231 224 224 221 224 222 225 221 216 213 211 215 219 217 211 204 208 206 208
264 234 217 233 215 199 114 208 108 113 165 245 235 250 261 252 277 294 289 305 295 302 288 272 261 249 238 230 224 219 219 223 219 215 215 212 215 213 208 200 200 178 201 208
277 240 254 212 251 166 190 261 262 252 239 277 122 216 274 255 263 280 349 5 4 0 354 329 307 279 259 246 240 228 219 221 215 212 212 213 214 211 211 201 182 191 193 206
290 279 171 174 202 244 178 218 283 285 277 289 139 239 278 271 30 4 69 41 30 13 354 350 346 333 306 274 246 229 223 228 219 212 213 212 214 212 212 207 197 193 194 203
195 259 299 225 239 230 152 222 351 207 134 253 270 256 274 273 72 46 32 12 15 4 6 3 356 349 331 316 284 247 233 231 220 215 210 212 211 209 210 209 199 193 201 192
198 280 273 306 297 86 244 137 231 213 253 267 232 263 272 321 42 31 25 12 3 2 1 0 1 357 353 344 330 281 243 232 222 214 215 215 214 212 209 203 198 195 194 198
6 252 274 268 230 332 222 223 56 296 265 277 280 270 24 88 53 37 24 9 2 356 353 354 354 357 358 360 353 336 274 240 226 220 216 216 217 214 209 203 198 198 196 198
32 203 257 276 303 322 333 55 71 276 261 247 296 267 84 76 55 34 23 7 359 355 355 353 351 354 357 358 1 352 322 272 246 232 222 217 212 210 205 204 201 197 199 199
358 340 304 271 180 94 74 86 57 33 224 243 267 270 135 53 28 23 10 5 358 353 357 355 354 356 353 351 352 354 348 313 273 242 225 216 212 210 208 206 204 199 197 199
240 217 248 270 292 285 291 292 306 298 268 277 259 284 266 346 7 12 9 2 357 359 360 356 352 351 350 347 344 344 344 341 298 261 234 222 218 214 213 213 207 202 199 196
24 261 227 275 285 292 280 275 277 270 267 260 277 280 314 344 349 351 350 358 357 358 355 353 349 347 345 345 343 339 336 336 329 279 251 240 226 219 217 212 210 202 205 205
19 269 277 282 276 275 278 280 286 283 280 271 284 279 14 335 337 343 329 348 350 349 345 342 340 340 340 339 338 334 330 329 328 303 268 254 239 227 218 211 208 203 198 199
260 240 215 264 343 302 263 265 280 289 38 321 307 0 340 335 341 336 321 328 339 337 333 330 331 329 329 329 331 329 326 323 324 323 287 263 250 238 223 211 205 200 198 194
209 194 227 270 285 248 89 53 44 94 70 37 10 336 329 327 322 317 310 307 334 332 327 324 320 321 322 323 321 325 325 323 322 321 308 279 254 243 230 211 207 203 199 194
212 199 210 255 233 320 268 57 10 346 172 40 3 342 324 326 317 299 302 326 323 313 311 311 311 310 312 314 318 319 322 321 322 322 325 315 274 247 223 211 205 205 199 198
154 228 240 185 263 273 73 12 334 276 250 18 348 327 325 326 311 309 322 309 303 299 298 301 306 304 303 309 313 314 315 320 320 319 312 307 305 255 234 219 204 199 199 199
160 181 244 247 261 262 42 346 325 254 337 330 333 315 313 308 294 296 300 299 298 298 297 301 303 298 297 304 308 304 305 310 314 314 308 300 291 277 242 229 213 200 198 193
264 268 236 204 258 265 10 45 350 321 307 308 312 311 306 302 299 294 294 292 296 299 297 297 299 300 295 298 305 299 298 305 312 311 308 306 299 281 250 225 209 197 181 159
236 305 311 244 315 321 17 320 299 288 297 310 308 305 304 300 298 300 297 295 295 295 293 292 292 298 296 296 300 295 291 302 308 317 310 314 310 300 267 222 195 173 169 167
169 237 262 313 127 305 316 311 293 299 304 303 301 301 301 297 298 297 296 295 295 294 293 292 289 289 290 292 304 299 296 294 296 308 312 314 319 316 280 217 185 178 178 177
283 228 266 267 283 303 266 309 317 308 306 303 303 302 301 298 293 291 291 289 290 292 291 290 287 284 288 291 296 304 301 291 283 299 305 306 311 322 314 170 199 200 193 188
204 225 260 293 304 300 297 312 312 312 307 307 304 302 302 301 297 293 289 289 289 291 293 291 290 287 290 292 295 300 299 287 276 277 295 297 306 310 300 257 117 197 209 193